Location: Unspecified
(0.0000°N, 0.0000°E)
Time: 04:10:58
(UTC+00:00)

Vanguard 1 Rocket - All Passes

Search period start: 30 August 2014 00:00
Search period end: 09 September 2014 00:00
Orbit: 651 x 4229 km, 34.3° (Epoch: 27 August)

Date Brightness Start Highest point End Pass type
(mag) Time Alt. Az. Time Alt. Az. Time Alt. Az.
30 Aug - 00:00:00 32° SE 23:59:45 33° SE 00:04:37 10° SE night (unlit)
30 Aug - 02:06:14 10° W 02:19:12 25° SW 02:27:24 10° S night (unlit)
30 Aug - 09:43:47 10° S 09:47:32 21° SE 09:52:32 10° E daylight
30 Aug - 12:06:37 10° WSW 12:12:45 54° NNW 12:24:15 10° NE daylight
30 Aug - 14:35:10 10° WNW 14:43:13 21° NNW 14:55:27 10° NNE daylight
30 Aug - 17:08:21 10° NNW 17:20:55 19° N 17:36:38 10° NE daylight
30 Aug - 19:39:13 10° NNW 20:01:18 35° NNE 20:21:26 10° E visible
30 Aug - 22:10:32 10° NW 22:36:56 75° NE 22:53:30 10° ESE visible
31 Aug - 00:47:08 10° WNW 01:07:10 44° SW 01:18:27 10° SSE visible
31 Aug - 10:56:32 10° SW 11:01:44 84° SE 11:10:56 10° NE daylight
31 Aug - 13:22:49 10° WNW 13:29:40 26° NNW 13:40:54 10° NNE daylight
31 Aug - 15:54:54 10° NW 16:04:03 17° N 16:16:18 10° NE daylight
31 Aug - 18:26:10 10° NNW 18:44:14 27° NNE 19:03:56 10° ENE visible
31 Aug - 20:56:12 10° NW 21:21:54 56° NE 21:41:07 10° ESE visible
31 Aug - 23:29:49 10° WNW 23:54:27 67° SW 00:08:31 10° SE visible
01 Sep - 02:12:46 10° WSW 02:23:15 19° SW 02:30:30 10° S night (unlit)
01 Sep - 09:47:10 10° SSW 09:51:27 35° SE 09:57:37 10° ENE daylight
01 Sep - 12:11:25 10° W 12:17:17 36° NNW 12:27:30 10° NE daylight
01 Sep - 14:41:32 10° NW 14:48:39 17° N 14:58:35 10° NNE daylight
01 Sep - 17:13:30 10° NNW 17:26:54 20° NNE 17:43:28 10° NE daylight
01 Sep - 19:42:47 10° NW 20:05:58 42° NNE 20:26:59 10° E visible
01 Sep - 22:14:02 10° NW 22:40:43 88° NE 22:57:39 10° SE visible
02 Sep - 00:52:17 10° W 01:10:52 35° SW 01:22:00 10° SSE visible
02 Sep - 08:39:19 10° SSE 08:41:10 12° SE 08:43:08 10° ESE daylight
02 Sep - 11:00:50 10° WSW 11:05:56 62° NNW 11:14:43 10° NE daylight
02 Sep - 13:28:40 10° WNW 13:34:44 19° NNW 13:43:41 10° NNE daylight
02 Sep - 16:01:00 10° NNW 16:10:01 16° N 16:21:42 10° NE daylight
02 Sep - 18:30:06 10° NNW 18:49:26 31° NNE 19:10:22 10° E visible
02 Sep - 20:59:36 10° NW 21:25:54 67° NE 21:45:40 10° ESE visible
02 Sep - 23:34:04 10° WNW 23:58:02 55° SW 00:12:16 10° SE visible
03 Sep - 02:20:18 10° WSW 02:27:37 14° SW 02:33:15 10° S visible
03 Sep - 09:50:56 10° SW 09:55:26 59° SE 10:02:08 10° ENE daylight
03 Sep - 12:16:39 10° WNW 12:22:02 25° NNW 12:30:30 10° NNE daylight
03 Sep - 14:48:18 10° NNW 14:54:18 14° N 15:02:01 10° NNE daylight
03 Sep - 17:18:02 10° NNW 17:32:36 22° NNE 17:50:36 10° ENE daylight
03 Sep - 19:46:14 10° NW 20:10:17 50° NE 20:32:06 10° ESE visible
03 Sep - 22:17:46 10° WNW 22:44:20 78° SW 23:01:37 10° SE visible
04 Sep - 00:58:04 10° W 01:14:46 28° SW 01:25:26 10° SSE visible
04 Sep - 08:41:50 10° SSW 08:45:15 21° SE 08:49:12 10° E daylight
04 Sep - 11:05:29 10° W 11:10:20 38° NNW 11:18:11 10° NE daylight
04 Sep - 13:35:16 10° NW 13:40:00 14° N 13:46:10 10° NNE daylight
04 Sep - 16:06:25 10° NNW 16:15:57 16° NNE 16:28:12 10° NE daylight
04 Sep - 18:33:47 10° NNW 18:54:12 37° NNE 19:16:20 10° E visible
04 Sep - 21:03:05 10° NW 21:29:41 79° NE 21:49:55 10° ESE visible
04 Sep - 23:38:45 10° WNW 00:01:39 45° SW 00:15:53 10° SSE visible
05 Sep - 02:29:42 10° SW 02:32:20 11° SSW 02:34:43 10° SSW visible
05 Sep - 09:55:03 10° WSW 09:59:33 79° NW 10:06:13 10° NE daylight
05 Sep - 12:22:31 10° NW 12:26:57 17° NNW 12:33:07 10° NNE daylight
05 Sep - 14:55:06 10° NNW 15:00:05 12° N 15:06:07 10° NNE daylight
05 Sep - 17:22:05 10° NNW 17:37:54 26° NNE 17:57:33 10° ENE daylight
05 Sep - 19:49:42 10° NW 20:14:17 60° NE 20:36:50 10° ESE visible
05 Sep - 22:21:47 10° WNW 22:47:53 66° SW 23:05:25 10° SE visible
06 Sep - 01:04:34 10° W 01:18:58 22° SW 01:28:46 10° S visible
06 Sep - 08:45:15 10° SSW 08:49:20 38° SE 08:54:11 10° ENE daylight
06 Sep - 11:10:35 10° WNW 11:14:57 24° NNW 11:21:19 10° NNE daylight
06 Sep - 13:43:28 10° NNW 13:45:27 11° N 13:47:38 10° N daylight
06 Sep - 16:11:04 10° NNW 16:21:40 18° NNE 16:35:29 10° ENE daylight
06 Sep - 18:37:20 10° NNW 18:58:33 44° NE 19:21:49 10° E visible
06 Sep - 21:06:45 10° NW 21:33:17 88° SW 21:53:57 10° SE visible
06 Sep - 23:43:58 10° W 00:05:27 37° SW 00:19:26 10° SSE visible
07 Sep - 07:36:22 10° S 07:38:53 14° SSE 07:41:21 10° ESE daylight
07 Sep - 09:59:31 10° WSW 10:03:50 44° NNW 10:09:57 10° NE daylight
07 Sep - 12:29:44 10° NNW 12:32:03 11° N 12:34:43 10° N daylight
07 Sep - 15:01:06 10° N 15:05:54 12° NNE 15:11:37 10° NNE daylight
07 Sep - 17:25:50 10° NNW 17:42:46 31° NNE 18:04:04 10° E daylight
07 Sep - 19:53:13 10° NW 20:18:03 71° NE 20:41:14 10° ESE visible
07 Sep - 22:26:09 10° WNW 22:51:28 55° SW 23:09:05 10° SE visible
08 Sep - 01:11:49 10° WSW 01:23:31 18° SSW 01:32:03 10° S night (unlit)
08 Sep - 08:49:06 10° SW 08:53:27 73° SE 08:58:37 10° ENE daylight
08 Sep - 11:16:26 10° NW 11:19:42 15° NNW 11:23:53 10° NNE daylight
08 Sep - 16:15:09 10° NNW 16:27:03 21° NNE 16:42:56 10° ENE daylight
08 Sep - 18:40:51 10° NW 19:02:35 52° NE 19:26:49 10° ESE visible
08 Sep - 21:10:37 10° WNW 21:36:50 76° SW 21:57:47 10° SE visible
08 Sep - 23:49:47 10° W 00:00:00 23° WSW 00:00:00 23° WSW visible
